Portland, ME

10:05 PM EST on December 13, 2019 (GMT -0500)
Portland International

Weather History for KPWM - October, 2019

Change the Weather History Date:

Tuesday, October 8, 2019

  Actual Average Record
Temperature  
Mean Temperature 56 °F 51 °F  
Max Temperature 66 °F 62 °F 81 °F (1947)
Min Temperature 47 °F 41 °F 24 °F (1954)
Degree Days  
Heating Degree Days 8 14  
Month to date heating degree days 95 99  
Since 1 July heating degree days 257 320  
Cooling Degree Days 0 0  
Month to date cooling degree days 0 0  
Year to date cooling degree days 474 358  
Growing Degree Days 6 (Base 50)    
Moisture  
Dew Point 49 °F    
Average Humidity 74    
Maximum Humidity 93    
Minimum Humidity 44    
Precipitation  
Precipitation 0.09 in 0.16 in 4.43 in (2005)
Month to date precipitation 1.00 1.21  
Year to date precipitation 35.73 34.64  
Snow  
Snow 0.00 in 0.00 in T in (2001)
Month to date snowfall 0.0 0.0  
Since 1 July snowfall 0.0 0.0  
Since 1 September snowfall 0.0 0.0  
Snow Depth 0.00 in    
Sea Level Pressure  
Sea Level Pressure 30.25 in    
Wind  
Wind Speed 5 mph ()    
Max Wind Speed 16 mph    
Max Gust Speed 19 mph    
Visibility 10.0 miles    
Events Rain    
T = Trace of Precipitation, MM = Missing Value Source: Averaged Metar Reports

Daily Weather History Graph

Daily Weather History Graph

Search for Another Location

Airport or City:

Astronomy

Oct. 08, 2019 Rise Set
Actual Time 6:46 AM EDT 6:10 PM EDT
Civil Twilight 6:17 AM EDT 6:38 PM EDT
Nautical Twilight 5:44 AM EDT 7:12 PM EDT
Astronomical Twilight 5:11 AM EDT 7:45 PM EDT
Moon 4:18 PM EDT (10/8) 1:20 AM EDT (10/8)
Length of Visible Light 12h 20m
Length of Day
11h 23m
Waxing Gibbous, 77% of the Moon is Illuminated
Oct 8
Waxing Gibbous
Oct 13
Full
Oct 21
Last Quarter
Oct 27
New
Nov 4
First Quarter

Hourly Weather History & Observations

Time (EDT) Temp. Dew Point Humidity Pressure Visibility Wind Dir Wind Speed Gust Speed Precip Events Conditions
12:09 AM 57.0 °F 55.0 °F 93% 30.17 in 10.0 mi SW 3.5 mph - 0.01 in Rain Light Rain
12:23 AM 57.0 °F 55.0 °F 93% 30.17 in 10.0 mi SSW 4.6 mph - 0.02 in Rain Light Rain
12:51 AM 57.0 °F 55.0 °F 93% 30.17 in 10.0 mi WSW 3.5 mph - 0.02 in Rain Light Rain
1:51 AM 57.0 °F 55.0 °F 93% 30.18 in 10.0 mi WSW 3.5 mph - 0.01 in Rain Light Rain
2:51 AM 57.0 °F 55.0 °F 93% 30.17 in 10.0 mi West 5.8 mph - 0.05 in Rain Light Rain
3:51 AM 57.0 °F 53.1 °F 87% 30.17 in 10.0 mi SW 4.6 mph - 0.01 in   Overcast
4:51 AM 55.9 °F 53.1 °F 90% 30.18 in 10.0 mi South 3.5 mph - N/A   Overcast
5:51 AM 55.0 °F 53.1 °F 93% 30.20 in 10.0 mi Calm Calm - N/A   Overcast
6:51 AM 55.0 °F 52.0 °F 89% 30.22 in 10.0 mi WSW 3.5 mph - N/A   Overcast
7:51 AM 55.9 °F 53.1 °F 90% 30.23 in 10.0 mi WNW 5.8 mph - N/A   Overcast
8:51 AM 57.0 °F 53.1 °F 87% 30.25 in 10.0 mi Calm Calm - N/A   Mostly Cloudy
9:51 AM 57.9 °F 53.1 °F 84% 30.26 in 10.0 mi NNW 5.8 mph - N/A   Mostly Cloudy
10:51 AM 60.1 °F 51.1 °F 72% 30.27 in 10.0 mi NNW 8.1 mph - N/A   Mostly Cloudy
11:51 AM 63.0 °F 46.0 °F 54% 30.27 in 10.0 mi NNW 12.7 mph - N/A   Mostly Cloudy
12:51 PM 64.0 °F 44.1 °F 48% 30.27 in 10.0 mi NNW 13.8 mph - N/A   Mostly Cloudy
1:51 PM 64.9 °F 44.1 °F 47% 30.25 in 10.0 mi North 9.2 mph - N/A   Mostly Cloudy
2:51 PM 64.9 °F 43.0 °F 45% 30.26 in 10.0 mi North 11.5 mph - N/A   Mostly Cloudy
3:51 PM 64.9 °F 43.0 °F 45% 30.26 in 10.0 mi NNW 10.4 mph - N/A   Mostly Cloudy
4:51 PM 63.0 °F 43.0 °F 48% 30.26 in 10.0 mi NNE 8.1 mph - N/A   Mostly Cloudy
5:51 PM 60.1 °F 43.0 °F 53% 30.28 in 10.0 mi North 6.9 mph - N/A   Clear
6:51 PM 57.0 °F 44.1 °F 62% 30.29 in 10.0 mi NNW 5.8 mph - N/A   Clear
7:51 PM 55.0 °F 44.1 °F 67% 30.30 in 10.0 mi North 4.6 mph - N/A   Clear
8:51 PM 54.0 °F 44.1 °F 69% 30.31 in 10.0 mi North 3.5 mph - N/A   Clear
9:51 PM 52.0 °F 43.0 °F 71% 30.31 in 10.0 mi Calm Calm - N/A   Clear
10:51 PM 51.1 °F 43.0 °F 74% 30.34 in 10.0 mi Calm Calm - N/A   Clear
11:51 PM 48.0 °F 42.1 °F 80% 30.35 in 10.0 mi North 5.8 mph - N/A   Clear